QPF
0.00 0.00 0.00 0.00 0.00 0.00 0.00 0.00 0.00 0.00 0.00 0.00 0.00 0.00 0.00 0.00 0.00 0.00 0.00 0.00 0.00 0.00 0.00 0.00 0.00 0.00 0.00 0.00 0.00 0.00 0.00 0.00 0.00 0.00 0.00 0.00 0.00 0.00 0.00 0.00 0.00 0.00 0.00 0.00 0.01
0.00 0.00 0.00 0.00 0.00 0.00 0.00 0.00 0.00 0.00 0.00 0.00 0.00 0.00 0.00 0.00 0.00 0.00 0.00 0.00 0.00 0.00 0.00 0.00 0.00 0.00 0.00 0.00 0.00 0.00 0.00 0.00 0.00 0.00 0.00 0.00 0.00 0.00 0.00 0.00 0.00 0.00 0.00 0.00 0.10
0.00 0.00 0.00 0.00 0.00 0.00 0.00 0.00 0.00 0.00 0.00 0.00 0.00 0.00 0.00 0.00 0.00 0.00 0.00 0.00 0.00 0.00 0.00 0.00 0.00 0.00 0.00 0.00 0.00 0.00 0.00 0.00 0.00 0.00 0.00 0.00 0.00 0.00 0.00 0.00 0.00 0.00 0.00 0.00 0.01
0.00 0.00 0.00 0.00 0.00 0.00 0.00 0.00 0.00 0.00 0.00 0.00 0.00 0.00 0.00 0.00 0.00 0.00 0.00 0.00 0.00 0.00 0.00 0.00 0.00 0.00 0.00 0.00 0.00 0.00 0.00 0.00 0.00 0.00 0.00 0.00 0.00 0.00 0.00 0.00 0.00 0.00 0.00 0.00 0.00
0.00 0.00 0.00 0.00 0.00 0.00 0.00 0.00 0.00 0.00 0.00 0.00 0.00 0.00 0.00 0.00 0.00 0.00 0.00 0.00 0.00 0.00 0.00 0.00 0.00 0.00 0.00 0.00 0.00 0.00 0.00 0.00 0.00 0.00 0.00 0.00 0.00 0.00 0.00 0.00 0.00 0.00 0.00 0.00 0.00
0.00 0.00 0.00 0.00 0.00 0.00 0.00 0.00 0.00 0.00 0.00 0.00 0.00 0.00 0.00 0.00 0.00 0.00 0.00 0.00 0.00 0.00 0.00 0.00 0.00 0.00 0.00 0.00 0.00 0.00 0.00 0.00 0.00 0.00 0.00 0.00 0.00 0.00 0.00 0.00 0.00 0.00 0.00 0.00 0.00
0.00 0.00 0.00 0.00 0.00 0.00 0.00 0.00 0.00 0.00 0.00 0.00 0.00 0.00 0.00 0.00 0.00 0.00 0.00 0.00 0.00 0.00 0.00 0.00 0.00 0.00 0.00 0.00 0.00 0.00 0.00 0.00 0.00 0.00 0.00 0.00 0.00 0.00 0.00 0.00 0.00 0.00 0.00 0.00 0.00
0.00 0.00 0.00 0.00 0.00 0.00 0.00 0.00 0.00 0.00 0.00 0.00 0.00 0.00 0.00 0.00 0.00 0.00 0.00 0.00 0.00 0.00 0.00 0.00 0.00 0.00 0.00 0.00 0.00 0.00 0.00 0.00 0.00 0.00 0.00 0.00 0.00 0.00 0.00 0.00 0.00 0.00 0.00 0.00 0.00
0.00 0.00 0.00 0.00 0.00 0.00 0.00 0.00 0.00 0.00 0.00 0.00 0.00 0.00 0.00 0.00 0.00 0.00 0.00 0.00 0.00 0.00 0.00 0.00 0.00 0.00 0.00 0.00 0.00 0.00 0.00 0.00 0.00 0.00 0.00 0.00 0.00 0.00 0.00 0.00 0.00 0.00 0.00 0.00 0.00
0.00 0.00 0.00 0.00 0.00 0.00 0.00 0.00 0.00 0.00 0.00 0.00 0.00 0.00 0.00 0.00 0.00 0.00 0.00 0.00 0.00 0.00 0.00 0.00 0.00 0.00 0.00 0.00 0.00 0.00 0.00 0.00 0.00 0.00 0.00 0.00 0.00 0.00 0.00 0.00 0.00 0.00 0.00 0.00 0.00
0.00 0.00 0.00 0.00 0.00 0.00 0.00 0.00 0.00 0.00 0.00 0.00 0.00 0.00 0.00 0.00 0.00 0.00 0.00 0.00 0.00 0.00 0.00 0.00 0.00 0.00 0.00 0.00 0.00 0.00 0.00 0.00 0.00 0.00 0.00 0.00 0.00 0.00 0.00 0.00 0.00 0.00 0.00 0.00 0.00
0.00 0.00 0.00 0.00 0.00 0.00 0.00 0.00 0.00 0.00 0.00 0.00 0.00 0.00 0.00 0.00 0.00 0.00 0.00 0.00 0.00 0.00 0.00 0.00 0.00 0.00 0.00 0.00 0.00 0.00 0.00 0.00 0.00 0.00 0.00 0.00 0.00 0.00 0.00 0.00 0.00 0.00 0.00 0.00 0.00
0.00 0.00 0.00 0.00 0.00 0.00 0.00 0.00 0.00 0.00 0.00 0.00 0.00 0.00 0.00 0.00 0.00 0.00 0.00 0.00 0.00 0.00 0.00 0.00 0.00 0.00 0.00 0.00 0.00 0.00 0.00 0.00 0.00 0.00 0.00 0.00 0.00 0.00 0.00 0.00 0.00 0.00 0.00 0.00 0.00
0.00 0.00 0.00 0.00 0.00 0.00 0.00 0.00 0.00 0.00 0.00 0.00 0.00 0.00 0.00 0.00 0.00 0.00 0.00 0.00 0.00 0.00 0.00 0.00 0.00 0.00 0.00 0.00 0.00 0.00 0.00 0.00 0.00 0.00 0.00 0.00 0.00 0.00 0.00 0.00 0.00 0.00 0.00 0.00 0.00
0.00 0.00 0.00 0.00 0.00 0.00 0.00 0.00 0.00 0.00 0.00 0.00 0.00 0.00 0.00 0.00 0.00 0.00 0.00 0.00 0.00 0.00 0.00 0.00 0.00 0.00 0.00 0.00 0.00 0.00 0.00 0.00 0.00 0.00 0.00 0.00 0.00 0.00 0.00 0.00 0.00 0.00 0.00 0.00 0.00
0.00 0.00 0.00 0.00 0.00 0.00 0.00 0.00 0.00 0.00 0.00 0.00 0.00 0.00 0.00 0.00 0.00 0.00 0.00 0.00 0.00 0.00 0.00 0.00 0.00 0.00 0.00 0.00 0.00 0.00 0.00 0.00 0.00 0.00 0.00 0.00 0.00 0.00 0.00 0.00 0.00 0.00 0.00 0.00 0.00
0.00 0.00 0.00 0.00 0.00 0.00 0.00 0.00 0.00 0.00 0.00 0.00 0.00 0.00 0.00 0.00 0.00 0.00 0.00 0.00 0.00 0.00 0.00 0.00 0.00 0.00 0.00 0.00 0.00 0.00 0.00 0.00 0.00 0.00 0.00 0.00 0.00 0.00 0.00 0.00 0.00 0.00 0.00 0.00 0.00
0.00 0.00 0.00 0.00 0.00 0.00 0.00 0.00 0.00 0.00 0.00 0.00 0.00 0.00 0.00 0.00 0.00 0.00 0.00 0.00 0.00 0.00 0.00 0.00 0.00 0.00 0.00 0.00 0.00 0.00 0.00 0.00 0.01 0.00 0.00 0.00 0.00 0.00 0.00 0.00 0.00 0.00 0.00 0.00 0.00
0.00 0.00 0.00 0.00 0.00 0.00 0.00 0.00 0.00 0.00 0.00 0.00 0.00 0.00 0.00 0.00 0.00 0.00 0.00 0.00 0.00 0.00 0.00 0.00 0.00 0.00 0.00 0.00 0.00 0.00 0.00 0.00 0.00 0.00 0.00 0.00 0.00 0.00 0.00 0.00 0.00 0.00 0.00 0.00 0.00
0.00 0.00 0.00 0.00 0.00 0.00 0.00 0.00 0.00 0.00 0.00 0.00 0.00 0.00 0.00 0.00 0.00 0.00 0.00 0.00 0.00 0.00 0.00 0.00 0.01 0.00 0.00 0.00 0.00 0.00 0.00 0.01 0.00 0.00 0.00 0.00 0.00 0.00 0.00 0.00 0.00 0.00 0.00 0.00 0.00
0.00 0.00 0.00 0.00 0.00 0.00 0.00 0.00 0.00 0.00 0.00 0.00 0.00 0.00 0.00 0.00 0.00 0.00 0.00 0.00 0.00 0.00 0.00 0.00 0.00 0.00 0.00 0.00 0.00 0.00 0.00 0.00 0.00 0.00 0.00 0.00 0.00 0.00 0.00 0.00 0.00 0.00 0.00 0.00 0.00
0.00 0.00 0.00 0.00 0.00 0.00 0.00 0.00 0.00 0.00 0.00 0.00 0.00 0.00 0.00 0.00 0.00 0.00 0.00 0.00 0.00 0.00 0.00 0.00 0.00 0.00 0.00 0.00 0.00 0.00 0.00 0.00 0.00 0.00 0.01 0.01 0.00 0.00 0.00 0.00 0.00 0.00 0.00 0.00 0.00
0.00 0.00 0.00 0.00 0.00 0.00 0.00 0.00 0.00 0.00 0.00 0.00 0.00 0.00 0.00 0.00 0.00 0.00 0.00 0.00 0.00 0.00 0.00 0.00 0.00 0.00 0.00 0.00 0.00 0.00 0.00 0.00 0.00 0.00 0.00 0.00 0.00 0.00 0.00 0.00 0.00 0.00 0.00 0.00 0.00
0.00 0.00 0.00 0.00 0.00 0.00 0.00 0.00 0.00 0.00 0.00 0.00 0.00 0.00 0.00 0.00 0.00 0.00 0.00 0.00 0.00 0.00 0.00 0.01 0.00 0.00 0.00 0.00 0.00 0.00 0.00 0.00 0.00 0.00 0.00 0.00 0.00 0.00 0.00 0.00 0.00 0.00 0.00 0.00 0.00
0.00 0.00 0.00 0.00 0.00 0.00 0.00 0.00 0.00 0.00 0.00 0.00 0.00 0.00 0.00 0.00 0.00 0.00 0.00 0.00 0.00 0.00 0.00 0.00 0.00 0.00 0.00 0.00 0.00 0.00 0.00 0.00 0.00 0.00 0.00 0.00 0.00 0.00 0.00 0.00 0.00 0.00 0.01 0.02 0.01
0.00 0.00 0.00 0.00 0.00 0.00 0.00 0.00 0.00 0.00 0.00 0.00 0.00 0.00 0.00 0.00 0.00 0.00 0.00 0.00 0.00 0.00 0.00 0.00 0.00 0.00 0.00 0.00 0.00 0.00 0.00 0.00 0.00 0.01 0.01 0.01 0.00 0.00 0.00 0.01 0.01 0.02 0.02 0.02 0.00
0.00 0.00 0.00 0.00 0.00 0.00 0.00 0.00 0.00 0.00 0.00 0.00 0.00 0.00 0.00 0.00 0.00 0.00 0.00 0.00 0.00 0.00 0.00 0.00 0.00 0.00 0.00 0.00 0.00 0.00 0.00 0.00 0.00 0.00 0.01 0.01 0.01 0.00 0.00 0.01 0.02 0.02 0.02 0.02 0.03
MSLP
1018.58 1018.15 1017.79 1017.44 1017.10 1016.78 1016.49 1016.20 1015.91 1015.67 1015.45 1015.20 1014.89 1014.54 1014.18 1013.84 1013.38 1012.89 1012.27 1010.74 1010.57 1010.26 1010.30 1010.13 1010.08 1010.20 1010.50 1010.81 1010.90 1011.26 1012.51 1012.72 1011.88 1011.10 1010.26 1009.11 1008.59 1007.57 1007.05 1006.59 1006.37 1005.87 1005.60 1005.07 1003.31
1018.51 1018.02 1017.59 1017.19 1016.86 1016.55 1016.26 1015.96 1015.63 1015.37 1015.16 1014.96 1014.71 1014.35 1014.01 1013.74 1013.50 1012.45 1010.66 1010.28 1010.34 1010.29 1010.37 1010.28 1010.27 1010.28 1010.74 1010.89 1010.99 1011.57 1012.41 1011.97 1011.18 1010.61 1009.92 1009.06 1008.62 1007.65 1007.23 1006.69 1006.21 1005.88 1005.40 1004.92 1004.70
1018.43 1017.95 1017.46 1017.03 1016.65 1016.29 1015.96 1015.66 1015.44 1015.21 1014.99 1014.80 1014.53 1014.04 1013.73 1013.55 1013.15 1011.12 1010.22 1010.35 1010.33 1010.31 1010.40 1010.37 1010.40 1010.51 1010.87 1011.04 1011.16 1011.58 1011.75 1011.18 1010.63 1010.20 1009.84 1009.19 1008.33 1007.65 1007.29 1006.60 1006.27 1005.87 1005.57 1005.23 1005.32
1018.37 1017.81 1017.33 1016.92 1016.47 1016.10 1015.77 1015.48 1015.23 1015.00 1014.78 1014.52 1014.15 1013.73 1013.33 1013.29 1012.49 1010.65 1010.30 1010.42 1010.50 1010.51 1010.49 1010.47 1010.59 1010.87 1011.30 1011.60 1011.60 1011.55 1011.14 1011.10 1010.74 1010.09 1009.98 1009.51 1008.58 1007.79 1007.28 1006.64 1006.21 1005.83 1005.73 1005.56 1005.86
1018.37 1017.76 1017.29 1016.81 1016.31 1015.93 1015.55 1015.22 1014.98 1014.79 1014.66 1014.40 1013.99 1013.55 1013.09 1012.72 1011.67 1010.52 1010.48 1010.58 1010.67 1010.62 1010.68 1010.74 1010.90 1011.17 1011.63 1011.72 1011.56 1011.59 1011.47 1011.22 1010.79 1010.35 1009.97 1009.29 1008.66 1007.88 1007.11 1006.56 1006.08 1005.69 1005.66 1005.80 1006.01
1018.36 1017.75 1017.21 1016.68 1016.15 1015.74 1015.41 1015.15 1014.89 1014.69 1014.57 1014.29 1013.91 1013.68 1013.35 1012.11 1010.47 1010.34 1010.55 1010.76 1010.81 1010.80 1010.72 1010.77 1010.76 1010.86 1011.39 1011.66 1011.83 1011.62 1011.38 1011.04 1010.63 1010.26 1009.73 1009.21 1008.31 1007.83 1006.86 1006.34 1005.99 1005.62 1005.38 1005.28 1005.76
1018.24 1017.64 1017.07 1016.51 1016.00 1015.53 1015.18 1014.85 1014.66 1014.52 1014.38 1014.14 1013.85 1013.81 1013.17 1011.45 1010.53 1010.43 1010.69 1010.68 1010.60 1010.77 1010.64 1010.34 1010.48 1010.83 1011.27 1011.68 1011.52 1011.56 1011.42 1010.94 1010.55 1010.10 1009.56 1008.91 1008.16 1007.60 1006.64 1006.40 1005.93 1005.68 1005.19 1004.87 1005.14
1017.92 1017.38 1016.85 1016.30 1015.77 1015.26 1014.88 1014.58 1014.36 1014.32 1014.20 1014.02 1013.96 1013.88 1012.68 1010.74 1010.66 1010.87 1010.93 1010.61 1010.20 1010.37 1010.60 1010.16 1010.29 1010.85 1011.40 1011.68 1011.86 1012.07 1012.00 1011.90 1010.94 1010.42 1009.59 1009.31 1008.61 1007.37 1006.32 1006.12 1005.70 1005.38 1005.07 1004.58 1004.38
1017.71 1017.16 1016.61 1016.06 1015.50 1014.94 1014.44 1014.15 1013.83 1013.92 1013.93 1013.96 1014.03 1013.73 1011.82 1010.73 1010.63 1009.62 1010.31 1010.44 1010.04 1009.87 1010.04 1010.11 1010.31 1011.14 1011.76 1012.32 1012.85 1012.76 1012.86 1012.21 1011.35 1010.42 1009.99 1009.61 1008.68 1007.02 1006.29 1005.91 1005.79 1005.45 1004.92 1004.50 1004.26
1017.54 1016.99 1016.43 1015.82 1015.26 1014.68 1014.13 1013.69 1013.60 1013.78 1013.89 1013.82 1013.65 1013.59 1011.40 1010.40 1009.76 1009.36 1009.46 1009.67 1010.03 1009.92 1010.19 1010.35 1011.21 1011.80 1012.61 1013.00 1012.95 1012.57 1012.60 1012.05 1011.38 1010.23 1009.50 1009.23 1008.37 1007.11 1006.18 1005.88 1005.53 1005.33 1004.75 1004.33 1003.87
1017.46 1016.77 1016.18 1015.53 1014.93 1014.55 1014.09 1013.97 1014.11 1013.71 1013.52 1013.02 1012.69 1012.24 1011.03 1010.00 1009.49 1009.11 1008.86 1009.46 1009.83 1010.24 1010.89 1011.21 1012.10 1012.41 1012.13 1012.06 1011.96 1011.95 1011.91 1011.53 1010.48 1010.02 1009.70 1008.93 1007.91 1006.67 1006.16 1005.57 1005.25 1004.82 1004.78 1004.14 1003.55
1017.30 1016.59 1015.85 1015.14 1014.61 1014.25 1014.34 1014.15 1013.54 1013.32 1012.86 1011.83 1011.68 1011.50 1010.55 1010.25 1009.93 1008.92 1008.76 1009.55 1010.04 1010.57 1011.14 1011.95 1012.02 1011.30 1011.22 1011.24 1011.41 1011.32 1011.22 1010.85 1010.00 1009.59 1009.30 1008.43 1007.17 1006.33 1005.72 1005.33 1004.81 1004.28 1004.04 1003.81 1003.31
1017.04 1016.21 1015.45 1014.81 1014.36 1014.23 1014.22 1013.46 1012.94 1012.92 1013.13 1011.64 1010.87 1010.43 1009.91 1010.00 1009.68 1008.95 1008.91 1008.89 1009.79 1010.53 1011.03 1011.61 1011.05 1010.72 1010.97 1010.88 1010.88 1010.67 1010.62 1010.36 1009.91 1009.18 1008.75 1008.27 1006.61 1005.98 1005.36 1004.83 1004.29 1003.46 1003.02 1003.15 1002.95
1016.83 1016.15 1015.26 1014.60 1014.38 1014.53 1013.67 1012.77 1012.81 1012.85 1013.11 1011.62 1010.44 1009.74 1009.48 1009.62 1009.57 1009.08 1008.91 1009.08 1009.58 1010.15 1010.57 1010.86 1010.35 1010.44 1010.53 1010.46 1010.26 1009.89 1009.73 1009.61 1009.56 1009.65 1008.91 1008.54 1005.50 1005.82 1005.24 1004.38 1003.96 1002.85 1002.29 1002.11 1002.19
1016.52 1015.90 1015.22 1014.66 1014.79 1014.19 1013.19 1012.73 1012.48 1012.87 1013.09 1011.44 1010.66 1009.89 1010.07 1010.56 1010.38 1009.97 1009.75 1009.26 1010.13 1010.49 1010.85 1010.64 1010.42 1010.28 1010.07 1009.73 1009.48 1009.19 1009.10 1009.26 1009.45 1009.39 1008.94 1008.91 1008.32 1004.97 1004.59 1003.83 1003.14 1002.71 1001.91 1001.33 1001.19
1016.05 1015.42 1015.06 1014.84 1014.87 1013.47 1012.89 1012.62 1012.65 1013.65 1013.05 1012.14 1011.38 1011.02 1011.17 1010.97 1010.97 1010.62 1010.50 1010.51 1010.76 1010.95 1010.92 1010.87 1010.08 1009.80 1009.39 1009.32 1009.40 1009.25 1009.27 1009.24 1009.48 1009.78 1008.77 1008.58 1008.11 1003.47 1004.00 1002.90 1002.13 1001.99 1001.53 1000.80 1000.51
1015.55 1014.76 1014.64 1014.38 1013.94 1013.13 1012.61 1013.08 1014.04 1014.00 1013.46 1013.08 1012.50 1012.07 1011.96 1011.78 1011.59 1011.45 1011.50 1011.77 1012.23 1012.31 1012.09 1011.52 1010.35 1009.71 1009.47 1009.67 1009.59 1009.81 1010.41 1010.61 1010.53 1010.41 1008.44 1007.32 1006.85 1003.84 1002.94 1002.17 1001.85 1001.66 1001.22 1000.59 1000.19
1015.37 1014.58 1014.33 1013.57 1013.40 1013.23 1013.54 1014.14 1014.69 1014.42 1013.68 1013.13 1012.78 1012.60 1012.61 1012.45 1012.24 1012.25 1012.33 1012.53 1012.73 1012.96 1013.02 1012.66 1011.35 1010.25 1009.93 1010.36 1010.48 1010.31 1010.86 1011.67 1010.93 1010.21 1009.16 1007.81 1005.88 1003.45 1001.91 1001.05 1001.13 1001.27 1001.12 1000.68 1000.40
1015.46 1014.70 1014.30 1013.62 1013.11 1013.24 1014.57 1015.52 1015.20 1014.56 1013.69 1013.17 1013.00 1012.93 1013.06 1013.01 1012.98 1012.98 1012.82 1012.69 1012.93 1013.35 1013.60 1013.15 1011.80 1010.40 1010.11 1009.59 1010.25 1010.36 1010.69 1010.59 1011.06 1010.28 1009.58 1007.18 1005.08 1003.21 1001.92 1001.34 1001.26 1001.14 1001.23 1000.98 1000.43
1017.18 1016.16 1014.50 1013.23 1012.98 1013.78 1015.09 1015.74 1015.01 1014.12 1013.50 1013.05 1013.24 1013.31 1013.54 1013.45 1013.55 1013.45 1012.99 1012.61 1012.91 1013.21 1013.28 1013.33 1012.17 1010.69 1010.01 1009.92 1009.12 1009.48 1009.96 1010.85 1010.95 1009.96 1008.78 1006.65 1005.24 1003.64 1002.22 1001.63 1001.36 1001.28 1001.15 1000.79 1000.22
1017.56 1016.43 1014.03 1013.38 1013.36 1014.93 1016.21 1015.99 1014.95 1013.88 1013.49 1013.11 1013.04 1013.35 1013.62 1013.73 1013.74 1013.73 1013.18 1012.50 1012.48 1012.93 1013.40 1013.49 1013.43 1011.54 1010.85 1009.88 1009.09 1009.44 1009.67 1010.35 1010.48 1009.92 1008.97 1007.01 1004.46 1002.87 1002.13 1001.67 1001.54 1001.33 1000.89 1000.52 1000.26
1019.43 1017.78 1014.64 1013.85 1015.30 1017.04 1017.08 1016.39 1015.30 1014.12 1013.50 1013.03 1012.94 1013.30 1013.67 1013.77 1013.85 1013.63 1013.07 1012.61 1012.06 1012.40 1013.09 1013.25 1013.14 1012.03 1010.53 1009.01 1009.09 1009.32 1009.42 1010.27 1010.15 1009.49 1008.62 1007.42 1003.75 1002.63 1002.31 1001.76 1001.35 1001.06 1000.44 1000.04 999.94
1020.63 1019.01 1015.67 1015.29 1017.84 1018.73 1017.85 1016.88 1015.82 1014.83 1014.15 1013.96 1013.84 1013.62 1013.79 1014.16 1014.12 1013.40 1012.75 1012.01 1012.11 1012.47 1012.56 1013.15 1012.88 1012.12 1010.30 1009.37 1008.75 1008.95 1009.11 1009.67 1009.46 1009.14 1008.17 1007.38 1004.03 1002.44 1002.40 1001.57 1000.91 1000.93 1000.56 1000.09 999.45
1021.06 1020.25 1018.55 1018.47 1019.30 1019.55 1019.27 1017.72 1016.34 1015.18 1014.67 1014.69 1014.46 1014.02 1014.39 1014.41 1014.30 1013.46 1012.74 1012.17 1012.08 1012.03 1011.87 1012.40 1012.02 1011.82 1010.95 1009.85 1009.61 1009.40 1009.10 1009.21 1009.20 1008.46 1007.15 1005.65 1003.88 1003.20 1002.38 1001.60 1001.07 1000.67 1000.28 999.79 999.53
1021.52 1021.70 1021.25 1020.63 1019.95 1020.00 1019.66 1018.19 1017.05 1016.25 1015.39 1015.08 1014.75 1015.17 1015.20 1014.90 1014.31 1013.56 1013.03 1012.43 1011.76 1011.28 1011.36 1011.80 1011.57 1011.44 1010.67 1009.98 1009.34 1008.66 1008.56 1008.26 1008.05 1007.32 1006.48 1004.97 1004.32 1002.74 1002.58 1002.39 1001.66 1000.57 999.88 999.42 999.40
1021.91 1022.01 1021.78 1021.34 1020.79 1020.41 1019.42 1018.23 1017.50 1016.91 1016.43 1015.67 1015.57 1015.18 1015.04 1015.01 1014.61 1013.32 1013.12 1012.41 1012.18 1011.53 1011.59 1011.88 1011.65 1011.29 1010.05 1008.93 1008.46 1008.07 1007.93 1007.83 1007.25 1006.48 1005.90 1005.16 1003.96 1003.46 1003.22 1002.97 1002.04 1001.16 1000.30 999.41 998.83
1021.70 1021.91 1021.84 1021.09 1020.72 1020.58 1019.67 1018.71 1017.93 1017.65 1016.39 1015.70 1015.51 1015.24 1014.82 1014.00 1013.48 1012.58 1012.05 1011.68 1011.80 1011.86 1012.03 1012.48 1012.47 1011.73 1009.46 1008.55 1008.22 1007.73 1007.46 1007.69 1007.33 1006.74 1006.45 1005.46 1004.90 1004.26 1003.47 1002.90 1002.04 1000.95 1000.05 998.98 997.81
Thickness
5691 5692 5693 5694 5694 5694 5694 5695 5696 5696 5697 5697 5698 5698 5699 5699 5702 5703 5703 5714 5714 5715 5712 5711 5710 5707 5702 5695 5697 5693 5664 5657 5679 5688 5694 5715 5713 5732 5743 5743 5749 5757 5760 5775 5798
5690 5692 5693 5693 5693 5693 5694 5695 5695 5696 5696 5695 5694 5694 5695 5694 5692 5694 5709 5708 5705 5703 5699 5695 5691 5691 5679 5680 5678 5666 5645 5659 5675 5684 5684 5699 5700 5716 5717 5726 5738 5743 5757 5771 5777
5690 5691 5693 5693 5694 5694 5694 5694 5694 5694 5693 5691 5690 5691 5690 5687 5687 5696 5701 5696 5693 5690 5686 5682 5678 5675 5666 5664 5662 5652 5643 5657 5668 5673 5676 5688 5695 5710 5704 5708 5726 5731 5742 5757 5761
5689 5691 5693 5693 5694 5694 5694 5694 5692 5691 5689 5687 5686 5686 5685 5680 5674 5690 5689 5683 5678 5674 5670 5664 5657 5648 5640 5635 5638 5636 5644 5645 5650 5659 5658 5664 5683 5692 5699 5706 5722 5731 5737 5746 5748
5688 5690 5691 5692 5693 5693 5693 5692 5690 5687 5684 5681 5679 5678 5676 5670 5668 5679 5674 5668 5665 5659 5652 5644 5636 5628 5617 5617 5618 5617 5621 5623 5629 5632 5636 5647 5656 5674 5687 5703 5712 5724 5727 5731 5735
5686 5688 5690 5691 5692 5692 5691 5688 5685 5682 5677 5673 5670 5667 5664 5659 5674 5669 5662 5655 5649 5643 5638 5632 5625 5621 5606 5603 5600 5605 5605 5611 5614 5616 5621 5626 5640 5649 5679 5685 5699 5709 5719 5725 5727
5685 5687 5688 5689 5689 5689 5687 5684 5680 5675 5670 5665 5661 5656 5652 5655 5663 5659 5651 5645 5641 5633 5626 5623 5617 5608 5601 5592 5599 5598 5593 5597 5604 5608 5604 5613 5615 5628 5658 5662 5674 5690 5708 5719 5725
5685 5686 5687 5688 5687 5686 5683 5679 5675 5668 5661 5655 5649 5644 5643 5660 5655 5649 5640 5634 5634 5626 5617 5616 5612 5602 5596 5595 5589 5585 5585 5575 5590 5595 5604 5600 5583 5622 5646 5648 5657 5671 5687 5706 5717
5684 5685 5685 5685 5684 5683 5680 5676 5671 5663 5654 5646 5640 5635 5637 5650 5642 5646 5635 5623 5621 5618 5613 5612 5606 5592 5588 5575 5565 5568 5563 5571 5581 5593 5591 5588 5583 5618 5633 5637 5646 5656 5672 5691 5702
5682 5682 5681 5681 5680 5678 5676 5671 5663 5655 5646 5639 5635 5626 5639 5637 5640 5640 5632 5625 5612 5608 5602 5599 5582 5575 5563 5560 5555 5567 5559 5565 5573 5582 5588 5583 5585 5610 5624 5624 5638 5646 5661 5677 5692
5678 5679 5679 5677 5676 5672 5670 5663 5653 5647 5643 5639 5634 5629 5630 5636 5636 5631 5632 5617 5607 5596 5579 5582 5568 5559 5567 5568 5577 5575 5570 5564 5579 5583 5576 5577 5585 5607 5612 5615 5622 5640 5649 5663 5680
5674 5674 5674 5674 5671 5667 5659 5653 5648 5644 5630 5642 5634 5627 5631 5628 5612 5618 5622 5599 5588 5574 5575 5567 5558 5577 5581 5580 5572 5571 5565 5567 5576 5581 5573 5576 5586 5601 5609 5612 5624 5634 5642 5651 5672
5672 5671 5671 5670 5667 5661 5654 5650 5648 5642 5622 5631 5633 5627 5625 5621 5608 5606 5607 5597 5580 5571 5568 5560 5571 5580 5575 5574 5569 5569 5563 5564 5566 5578 5578 5573 5581 5588 5603 5605 5614 5629 5640 5644 5657
5669 5668 5668 5667 5663 5651 5651 5651 5643 5637 5600 5621 5625 5624 5622 5614 5601 5611 5604 5592 5581 5571 5568 5566 5576 5575 5568 5566 5566 5561 5575 5571 5569 5561 5557 5573 5568 5585 5592 5600 5608 5627 5636 5643 5647
5665 5664 5663 5660 5654 5649 5651 5646 5641 5628 5569 5621 5615 5626 5612 5597 5593 5591 5595 5587 5572 5569 5569 5565 5568 5563 5562 5568 5573 5567 5574 5567 5564 5559 5556 5555 5544 5577 5595 5597 5608 5613 5625 5636 5647
5663 5663 5660 5656 5648 5652 5648 5643 5634 5596 5584 5601 5605 5595 5590 5591 5586 5585 5579 5576 5569 5562 5564 5560 5571 5569 5568 5571 5567 5568 5560 5559 5554 5544 5548 5560 5552 5591 5585 5596 5606 5610 5616 5634 5642
5662 5663 5659 5654 5651 5651 5649 5634 5598 5578 5602 5590 5588 5587 5580 5577 5576 5572 5564 5553 5544 5537 5540 5550 5559 5567 5566 5551 5556 5551 5536 5530 5528 5529 5545 5568 5557 5582 5597 5603 5602 5605 5610 5623 5634
5660 5661 5657 5656 5652 5645 5635 5612 5589 5596 5591 5596 5589 5582 5573 5570 5565 5559 5551 5541 5544 5539 5528 5520 5531 5555 5557 5543 5535 5539 5533 5518 5526 5532 5525 5546 5543 5570 5601 5612 5608 5607 5610 5617 5623
5655 5655 5654 5653 5651 5643 5619 5585 5584 5591 5594 5587 5581 5572 5566 5565 5558 5546 5543 5539 5538 5530 5525 5523 5534 5559 5549 5549 5537 5530 5524 5531 5518 5518 5522 5539 5558 5577 5591 5595 5601 5601 5606 5609 5617
5636 5637 5645 5652 5648 5634 5604 5592 5592 5596 5592 5587 5570 5570 5554 5554 5547 5538 5536 5541 5530 5527 5525 5523 5520 5547 5547 5540 5544 5535 5533 5517 5518 5525 5526 5535 5541 5555 5579 5586 5587 5588 5592 5599 5609
5627 5632 5645 5647 5640 5613 5591 5586 5593 5597 5589 5582 5574 5563 5557 5548 5546 5533 5536 5541 5535 5526 5517 5514 5507 5532 5531 5531 5533 5530 5526 5516 5513 5515 5519 5526 5540 5556 5567 5575 5577 5581 5588 5595 5598
5603 5616 5636 5637 5605 5576 5587 5590 5591 5592 5587 5583 5578 5567 5556 5549 5541 5535 5531 5534 5538 5531 5517 5509 5506 5511 5530 5541 5538 5530 5525 5510 5510 5503 5518 5519 5539 5561 5561 5567 5572 5575 5587 5592 5593
5591 5592 5623 5621 5578 5565 5576 5583 5584 5581 5576 5571 5565 5565 5559 5548 5519 5538 5537 5541 5534 5525 5516 5507 5504 5508 5524 5528 5535 5529 5525 5509 5506 5503 5513 5512 5536 5553 5551 5562 5571 5569 5571 5579 5587
5585 5587 5592 5583 5570 5571 5560 5567 5575 5578 5573 5564 5558 5557 5546 5542 5536 5533 5538 5534 5529 5526 5529 5509 5508 5511 5518 5527 5520 5509 5516 5516 5498 5504 5515 5522 5534 5540 5549 5552 5558 5561 5566 5570 5571
5574 5571 5569 5561 5567 5558 5555 5561 5567 5562 5565 5558 5556 5544 5534 5522 5524 5521 5527 5526 5527 5530 5523 5514 5512 5505 5509 5510 5513 5515 5515 5517 5510 5514 5515 5527 5521 5541 5537 5536 5544 5555 5560 5562 5558
5570 5566 5555 5550 5553 5555 5556 5563 5561 5556 5551 5548 5543 5544 5533 5521 5515 5521 5519 5520 5509 5526 5518 5502 5507 5503 5516 5522 5520 5517 5520 5513 5520 5526 5521 5521 5525 5526 5520 5521 5528 5539 5548 5553 5552
5563 5557 5554 5552 5550 5547 5544 5554 5550 5541 5548 5546 5539 5530 5525 5528 5531 5533 5529 5527 5520 5508 5495 5487 5486 5487 5511 5521 5510 5518 5514 5505 5505 5511 5503 5520 5507 5508 5512 5516 5523 5531 5537 5544 5555